Regional Weather Roundup
Issued by NWS Sioux Falls, SD

Home | Current Version | Previous Version | Graphics & Text | Print | Product List | Glossary On
Versions: 1 2 3 4 5 6 7 8 9 10 11 12 13 14 15 16 17 18 19 20 21 22 23 24 25 26 27 28 29 30 31 32 33 34 35 36 37 38 39 40 41 42 43 44 45 46 47 48 49 50
000
ASUS43 KFSD 061402
RWRFSD

WEATHER ROUNDUP FOR SE SOUTH DAKOTA/SW MINNESOTA/NW IOWA
NATIONAL WEATHER SERVICE SIOUX FALLS SD
900 AM CDT MON JUL 06 2015

NOTE: "FAIR" INDICATES FEW OR NO CLOUDS BELOW 12,000 FEET WITH NO
SIGNIFICANT WEATHER AND OR OBSTRUCTIONS TO VISIBILITY.


SDZ038>040-050-052>070-061500-
SOUTHEAST SOUTH DAKOTA

CITY           SKY/WX    TMP DP  RH WIND       PRES   REMARKS
BROOKINGS      CLOUDY    64  61  88 N14       29.97R
CHAMBERLAIN    CLOUDY    63  60  90 N10       30.05R FOG
HURON          CLOUDY    64  59  83 N12       30.01R HAZE
MADISON        LGT RAIN  64  64 100 N14G20    29.96R
MITCHELL       CLOUDY    64  60  87 N10       29.98S FOG
SIOUX FALLS    CLOUDY    69  68  96 N13       29.90R
WINNER         CLOUDY    67  63  87 N14       30.07R FOG
YANKTON        CLOUDY    68  64  88 NW16G23   29.89R
$$

MNZ071-072-080-081-089-090-097-098-061500-
SOUTHWEST MINNESOTA

CITY           SKY/WX    TMP DP  RH WIND       PRES   REMARKS
FAIRMONT       CLOUDY    72  64  78 W6        29.80R
JACKSON        CLOUDY    72  70  94 W9        29.85R
MARSHALL       CLOUDY    66  61  82 N14       29.89R
MONTEVIDEO     DRIZZLE   66  66 100 N15       29.90R
PIPESTONE      DRIZZLE   66  64  94 N9        29.91S
REDWOOD FALLS  LGT RAIN  69  67  93 N9        29.85R
TRACY          DRIZZLE   68  67  96 NW10G16   29.89R
WINDOM         LGT RAIN  70  68  94 NW10      29.85R
WORTHINGTON    CLOUDY    68  64  88 NW12      29.88R
$$

IAZ001>003-012>014-020>022-031-032-NEZ013-014-SDZ071-061500-
NORTHWEST IOWA

CITY           SKY/WX    TMP DP  RH WIND       PRES   REMARKS
DENISON        CLOUDY    72  70  94 E6        29.84F
ESTHERVILLE    CLOUDY    71  69  93 W5        29.81S
SIOUX CITY     CLOUDY    72  69  90 SW3       29.84F
SPENCER        CLOUDY    72  68  87 W8        29.85R
$$

ABBREVIATIONS USED IN REMARKS
   TC - TEMPERATURE IN CELSIUS
  WCI - WIND CHILL INDEX
   HX - HEAT INDEX
  VSB - VISIBILITY



USA.gov is the U.S. government's official web portal to all federal, state and local government web resources and services.